Location: Home
(42.5358°N, 72.7383°W)
Time: 11:46:31
(UTC-05:00)

Explorer 7 - Pass Details

Date: 03 December 2021
Orbit: 483 x 674 km, 50.3° (Epoch: 20 January)

Event Time Altitude Azimuth Distance (km) Brightness Sun altitude
Rises 06:35:39 0° 253° (WSW) 2,809 10.0 -5.4°
Reaches altitude 10° 06:38:03 10° 259° (WSW) 1,876 9.1 -5.0°
Maximum altitude 06:42:13 52° 336° (NNW) 690 7.1 -4.3°
Drops below altitude 10° 06:46:09 10° 53° (NE) 1,769 9.8 -3.6°
Sets 06:48:21 0° 59° (ENE) 2,632 10.8 -3.3°
